Location: Cluj-Napoca
(46.7712°N, 23.6236°E)
Time: 06:06:54
(UTC+03:00)

ISS - Pass Details

Date: 31 March 2020
Orbit: 417 x 423 km, 51.6° (Epoch: 29 March)

Event Time Altitude Azimuth Distance (km) Brightness Sun altitude
Rises 21:10:20 0° 295° (WNW) 2,362 2.1 -13.5°
Reaches altitude 10° 21:12:27 10° 299° (WNW) 1,497 0.5 -13.8°
Maximum altitude 21:15:47 60° 21° (NNE) 481 -3.5 -14.3°
Enters shadow 21:17:16 29° 91° (E) 792 -2.9 -14.6°
